Location: Cheching
(60.0667°N, 164.2167°W)
Time: 22:09:15
(UTC+00:00)

XW-2D - Pass Details

Date: 18 January 2021
Orbit: 505 x 525 km, 97.5° (Epoch: 07 March)

Event Time Altitude Azimuth Distance (km) Brightness Sun altitude
Rises 04:59:36 0° 206° (SSW) 2,618 ? -16.7°
Reaches altitude 10° 05:02:11 10° 225° (SW) 1,741 ? -17.0°
Maximum altitude 05:04:52 19° 271° (W) 1,297 ? -17.4°
Drops below altitude 10° 05:07:36 10° 317° (NW) 1,761 ? -17.7°
Sets 05:10:13 0° 336° (NNW) 2,659 ? -18.0°
